| time (UTC) | temp C | wind direction | speed KPH | gust KPH | rain 1hr cm | rain 24hr cm | rain mn cm | humidity % | barometer mb |
| 20260508213037 | 23 | 207 | 4.8 | 16.1 | 0.00 | 0.00 | 0.00 | 25 | 1014.8 |
| 20260508211540 | 23 | 284 | 4.8 | 16.1 | 0.00 | 0.00 | 0.00 | 25 | 1014.9 |
| 20260508210035 | 23 | 267 | 8.0 | 17.7 | 0.00 | 0.00 | 0.00 | 25 | 1015.0 |
| 20260508204531 | 22 | 265 | 8.0 | 17.7 | 0.00 | 0.00 | 0.00 | 26 | 1015.1 |
| 20260508203029 | 22 | 227 | 4.8 | 11.3 | 0.00 | 0.00 | 0.00 | 25 | 1015.1 |
| 20260508201532 | 22 | 215 | 3.2 | 14.5 | 0.00 | 0.00 | 0.00 | 27 | 1015.1 |
| 20260508200026 | 22 | 246 | 1.6 | 9.7 | 0.00 | 0.00 | 0.00 | 28 | 1015.2 |
| 20260508194523 | 21 | 248 | 3.2 | 14.5 | 0.00 | 0.00 | 0.00 | 31 | 1015.2 |
| 20260508193026 | 21 | 205 | 4.8 | 9.7 | 0.00 | 0.00 | 0.00 | 30 | 1015.4 |
| 20260508191520 | 21 | 251 | 4.8 | 17.7 | 0.00 | 0.00 | 0.00 | 29 | 1015.5 |
| 20260508190019 | 21 | 164 | 3.2 | 9.7 | 0.00 | 0.00 | 0.00 | 33 | 1015.5 |
| 20260508184521 | 21 | 264 | 4.8 | 16.1 | 0.00 | 0.00 | 0.00 | 32 | 1015.7 |
| 20260508183015 | 21 | 142 | 4.8 | 11.3 | 0.00 | 0.00 | 0.00 | 39 | 1015.7 |
| 20260508181514 | 21 | 136 | 6.4 | 16.1 | 0.00 | 0.00 | 0.00 | 38 | 1015.8 |
| 20260508180013 | 20 | 163 | 4.8 | 11.3 | 0.00 | 0.00 | 0.00 | 36 | 1015.8 |
| 20260508174524 | 20 | 192 | 3.2 | 17.7 | 0.00 | 0.00 | 0.00 | 38 | 1016.0 |
| 20260508173011 | 20 | 217 | 4.8 | 14.5 | 0.00 | 0.00 | 0.00 | 42 | 1016.0 |
| 20260508171511 | 20 | 148 | 3.2 | 11.3 | 0.00 | 0.00 | 0.00 | 39 | 1015.9 |
| 20260508170009 | 20 | 219 | 0.0 | 9.7 | 0.00 | 0.00 | 0.00 | 39 | 1015.8 |
| 20260508164509 | 20 | 219 | 3.2 | 8.0 | 0.00 | 0.00 | 0.00 | 41 | 1015.8 |
| 20260508163009 | 20 | 219 | 3.2 | 8.0 | 0.00 | 0.00 | 0.00 | 42 | 1015.9 |
| 20260508161505 | 18 | 259 | 0.0 | 6.4 | 0.00 | 0.00 | 0.00 | 43 | 1016.0 |
| 20260508160005 | 19 | 262 | 4.8 | 9.7 | 0.00 | 0.00 | 0.00 | 43 | 1015.9 |
| 20260508154503 | 19 | 323 | 1.6 | 4.8 | 0.00 | 0.00 | 0.00 | 44 | 1015.8 |
| 20260508153103 | 18 | 323 | 0.0 | 4.8 | 0.00 | 0.00 | 0.00 | 45 | 1015.7 |
| 20260508151555 | 17 | 322 | 1.6 | 4.8 | 0.00 | 0.00 | 0.00 | 45 | 1015.6 |
| 20260508150054 | 16 | 322 | 0.0 | 4.8 | 0.00 | 0.00 | 0.00 | 44 | 1015.6 |
| 20260508144553 | 15 | 53 | 3.2 | 4.8 | 0.00 | 0.00 | 0.00 | 44 | 1015.5 |
| 20260508143053 | 15 | 53 | 1.6 | 8.0 | 0.00 | 0.00 | 0.00 | 45 | 1015.4 |
| 20260508141555 | 15 | 53 | 0.0 | 3.2 | 0.00 | 0.00 | 0.00 | 44 | 1015.3 |
| 20260508140044 | 13 | 53 | 0.0 | 3.2 | 0.00 | 0.00 | 0.00 | 36 | 1015.2 |
| 20260508134555 | 11 | 53 | 0.0 | 4.8 | 0.00 | 0.00 | 0.00 | 30 | 1015.2 |
| 20260508133042 | 10 | 53 | 3.2 | 4.8 | 0.00 | 0.00 | 0.00 | 26 | 1015.1 |
| 20260508131539 | 10 | 53 | 1.6 | 4.8 | 0.00 | 0.00 | 0.00 | 34 | 1014.9 |
| 20260508130039 | 9 | 44 | 3.2 | 6.4 | 0.00 | 0.00 | 0.00 | 38 | 1014.7 |
| 20260508124535 | 10 | 44 | 0.0 | 3.2 | 0.00 | 0.00 | 0.00 | 42 | 1014.6 |
| 20260508123033 | 10 | 44 | 3.2 | 4.8 | 0.00 | 0.00 | 0.00 | 44 | 1014.4 |
| 20260508121539 | 10 | 44 | 0.0 | 0.0 | 0.00 | 0.00 | 0.00 | 43 | 1014.4 |
| 20260508120026 | 10 | 44 | 1.6 | 4.8 | 0.00 | 0.00 | 0.00 | 41 | 1014.1 |
| 20260508114525 | 10 | 61 | 1.6 | 4.8 | 0.00 | 0.00 | 0.00 | 38 | 1014.0 |
| 20260508113024 | 10 | 71 | 0.0 | 4.8 | 0.00 | 0.00 | 0.00 | 39 | 1013.9 |
| 20260508111524 | 11 | 98 | 1.6 | 9.7 | 0.00 | 0.00 | 0.00 | 45 | 1013.9 |
| 20260508110023 | 11 | 69 | 1.6 | 4.8 | 0.00 | 0.00 | 0.00 | 45 | 1014.0 |
| 20260508104521 | 11 | 114 | 1.6 | 6.4 | 0.00 | 0.00 | 0.00 | 48 | 1014.0 |
| 20260508103028 | 11 | 111 | 4.8 | 9.7 | 0.00 | 0.00 | 0.00 | 48 | 1013.8 |
| 20260508101521 | 11 | 78 | 3.2 | 6.4 | 0.00 | 0.00 | 0.00 | 48 | 1013.9 |
| 20260508100024 | 10 | 76 | 1.6 | 4.8 | 0.00 | 0.00 | 0.00 | 43 | 1013.8 |
| 20260508094516 | 10 | 49 | 1.6 | 3.2 | 0.00 | 0.00 | 0.00 | 37 | 1013.7 |
| 20260508093014 | 10 | 64 | 1.6 | 4.8 | 0.00 | 0.00 | 0.00 | 41 | 1013.7 |
| 20260508091511 | 11 | 80 | 1.6 | 3.2 | 0.00 | 0.00 | 0.00 | 39 | 1013.7 |
| 20260508090008 | 11 | 80 | 0.0 | 1.6 | 0.00 | 0.00 | 0.00 | 44 | 1013.6 |
| 20260508084505 | 12 | 80 | 0.0 | 3.2 | 0.00 | 0.00 | 0.00 | 49 | 1013.7 |
| 20260508083002 | 13 | 94 | 1.6 | 3.2 | 0.00 | 0.00 | 0.00 | 49 | 1013.7 |
| 20260508081504 | 14 | 94 | 3.2 | 9.7 | 0.00 | 0.00 | 0.00 | 47 | 1013.7 |
| 20260508080001 | 13 | 94 | 1.6 | 4.8 | 0.00 | 0.00 | 0.00 | 48 | 1013.6 |
| 20260508074600 | 13 | 93 | 3.2 | 4.8 | 0.00 | 0.00 | 0.00 | 49 | 1013.6 |
| 20260508073057 | 13 | 93 | 1.6 | 3.2 | 0.00 | 0.00 | 0.00 | 49 | 1013.6 |
| 20260508071557 | 13 | 107 | 0.0 | 3.2 | 0.00 | 0.00 | 0.00 | 49 | 1013.6 |
| 20260508070054 | 14 | 107 | 0.0 | 3.2 | 0.00 | 0.00 | 0.00 | 47 | 1013.5 |
| 20260508064553 | 14 | 105 | 1.6 | 9.7 | 0.00 | 0.00 | 0.00 | 47 | 1013.5 |
| 20260508063055 | 15 | 49 | 1.6 | 3.2 | 0.00 | 0.00 | 0.00 | 47 | 1013.4 |
| 20260508061552 | 15 | 52 | 3.2 | 4.8 | 0.00 | 0.00 | 0.00 | 46 | 1013.4 |
| 20260508060053 | 15 | 49 | 1.6 | 4.8 | 0.00 | 0.00 | 0.00 | 46 | 1013.4 |
| 20260508054545 | 15 | 55 | 3.2 | 4.8 | 0.00 | 0.00 | 0.00 | 46 | 1013.2 |
| 20260508053045 | 16 | 51 | 3.2 | 4.8 | 0.00 | 0.00 | 0.00 | 44 | 1013.1 |
| 20260508051544 | 17 | 51 | 1.6 | 4.8 | 0.00 | 0.00 | 0.00 | 42 | 1013.1 |
| 20260508050046 | 17 | 51 | 3.2 | 4.8 | 0.00 | 0.00 | 0.00 | 41 | 1012.9 |
| 20260508044544 | 17 | 55 | 1.6 | 4.8 | 0.00 | 0.00 | 0.00 | 42 | 1013.0 |
| 20260508043043 | 17 | 60 | 3.2 | 4.8 | 0.00 | 0.00 | 0.00 | 42 | 1013.0 |
| 20260508041542 | 17 | 46 | 3.2 | 4.8 | 0.00 | 0.00 | 0.00 | 44 | 1013.0 |
| 20260508040050 | 16 | 47 | 3.2 | 4.8 | 0.00 | 0.00 | 0.00 | 45 | 1012.9 |
| 20260508034542 | 17 | 67 | 1.6 | 4.8 | 0.00 | 0.00 | 0.00 | 43 | 1012.9 |
| 20260508033042 | 17 | 55 | 3.2 | 4.8 | 0.00 | 0.00 | 0.00 | 44 | 1012.8 |
| 20260508031541 | 17 | 46 | 3.2 | 4.8 | 0.00 | 0.00 | 0.00 | 44 | 1012.7 |
| 20260508030041 | 17 | 49 | 1.6 | 3.2 | 0.00 | 0.00 | 0.00 | 46 | 1012.6 |
| 20260508024548 | 19 | 227 | 1.6 | 4.8 | 0.00 | 0.00 | 0.00 | 40 | 1012.5 |
| 20260508023039 | 21 | 227 | 1.6 | 3.2 | 0.00 | 0.00 | 0.00 | 39 | 1012.5 |
| 20260508021538 | 22 | 227 | 1.6 | 3.2 | 0.00 | 0.00 | 0.00 | 30 | 1012.4 |
| 20260508020037 | 23 | 227 | 0.0 | 3.2 | 0.00 | 0.00 | 0.00 | 29 | 1012.4 |
| 20260508014541 | 23 | 227 | 0.0 | 3.2 | 0.00 | 0.00 | 0.00 | 27 | 1012.4 |
| 20260508013035 | 23 | 237 | 1.6 | 6.4 | 0.00 | 0.00 | 0.00 | 28 | 1012.3 |
| 20260508011536 | 23 | 257 | 1.6 | 12.9 | 0.00 | 0.00 | 0.00 | 28 | 1012.5 |
| 20260508010036 | 23 | 94 | 1.6 | 12.9 | 0.00 | 0.00 | 0.00 | 27 | 1012.6 |
| 20260508004535 | 23 | 188 | 0.0 | 6.4 | 0.00 | 0.00 | 0.00 | 27 | 1012.6 |
| 20260508003032 | 23 | 198 | 3.2 | 11.3 | 0.00 | 0.00 | 0.00 | 27 | 1012.4 |
| 20260508001532 | 24 | 298 | 1.6 | 11.3 | 0.00 | 0.00 | 0.00 | 27 | 1012.6 |
| 20260508000030 | 25 | 14 | 0.0 | 6.4 | 0.00 | 0.00 | 0.00 | 28 | 1012.9 |
| 20260507234526 | 24 | 49 | 1.6 | 8.0 | 0.00 | 0.00 | 0.00 | 27 | 1012.9 |
| 20260507233036 | 23 | 263 | 0.0 | 6.4 | 0.00 | 0.00 | 0.00 | 29 | 1013.2 |
| 20260507231532 | 23 | 263 | 4.8 | 9.7 | 0.00 | 0.00 | 0.00 | 27 | 1013.2 |
| 20260507230019 | 23 | 43 | 4.8 | 8.0 | 0.00 | 0.00 | 0.00 | 29 | 1013.4 |
| 20260507224517 | 23 | 342 | 1.6 | 8.0 | 0.00 | 0.00 | 0.00 | 28 | 1013.7 |
| 20260507223013 | 22 | 312 | 1.6 | 4.8 | 0.00 | 0.00 | 0.00 | 29 | 1014.0 |
| 20260507221514 | 22 | 279 | 1.6 | 11.3 | 0.00 | 0.00 | 0.00 | 29 | 1014.1 |
| 20260507220013 | 21 | 281 | 1.6 | 12.9 | 0.00 | 0.00 | 0.00 | 29 | 1014.2 |
| 20260507214509 | 22 | 257 | 6.4 | 12.9 | 0.00 | 0.00 | 0.00 | 29 | 1014.2 |